K5BOU Weather Reports


Display with metric or nautical units.
time (UTC)temp
F
wind
direction
speed
MPH
gust
MPH
rain 1hr
in
rain 24hr
in
rain mn
in
humidity
%
barometer
mb
20260906035651 82 186 0.0 1.0 0.00 0.00 0.00 95 1011.4
20260906035147 82 178 0.0 1.0 0.00 0.00 0.00 95 1011.3
20260906034641 82 172 0.0 1.0 0.00 0.00 0.00 95 1011.5
20260906034136 82 173 0.0 1.0 0.00 0.00 0.00 95 1011.2
20260906033632 82 182 0.0 1.0 0.00 0.00 0.00 95 1011.2
20260906033126 82 174 0.0 2.0 0.00 0.00 0.00 95 1011.1
20260906032623 82 181 0.0 0.0 0.00 0.00 0.00 95 1011.2
20260906032122 82 182 0.0 0.0 0.00 0.00 0.00 95 1011.2
20260906031618 82 180 0.0 1.0 0.00 0.00 0.00 94 1010.9
20260906031114 82 174 0.0 2.0 0.00 0.00 0.00 94 1010.9
20260906030612 82 191 0.0 0.0 0.00 0.00 0.00 94 1010.9
20260906030108 82 186 0.0 0.0 0.00 0.00 0.00 94 1011.0
20260906025607 82 176 0.0 0.0 0.00 0.00 0.00 93 1011.0
20260906025106 82 175 0.0 0.0 0.00 0.00 0.00 93 1010.7
20260906024601 82 174 0.0 0.0 0.00 0.00 0.00 93 1010.7
20260906024055 83 187 0.0 1.0 0.00 0.00 0.00 93 1010.7
20260906023552 83 181 0.0 1.0 0.00 0.00 0.00 93 1010.5
20260906023046 83 188 0.0 1.0 0.00 0.00 0.00 92 1010.6
20260906022541 83 196 0.0 1.0 0.00 0.00 0.00 92 1010.4
20260906022037 83 189 0.0 2.0 0.00 0.00 0.00 91 1010.3
20260906021532 84 173 1.0 1.0 0.00 0.00 0.00 91 1010.1
20260906021031 84 167 2.0 3.0 0.00 0.00 0.00 91 1010.2
20260906020531 84 174 0.0 3.0 0.00 0.00 0.00 90 1010.0
20260906020031 84 181 0.0 2.0 0.00 0.00 0.00 91 1009.8
20260906015529 84 126 3.0 5.0 0.00 0.00 0.00 91 1009.8
20260906015024 84 173 0.0 3.0 0.00 0.00 0.00 91 1010.0
20260906014519 84 170 0.0 2.0 0.00 0.00 0.00 91 1009.8
20260906014015 84 150 1.0 2.0 0.00 0.00 0.00 91 1009.5
20260906013510 84 168 0.0 2.0 0.00 0.00 0.00 91 1009.6
20260906013006 84 172 2.0 3.0 0.00 0.00 0.00 90 1009.6
20260906012501 84 172 0.0 3.0 0.00 0.00 0.00 90 1009.6
20260906012000 84 201 1.0 1.0 0.00 0.00 0.00 90 1009.6
20260906011456 84 177 1.0 2.0 0.00 0.00 0.00 89 1009.5
20260906010950 85 177 0.0 5.0 0.00 0.00 0.00 89 1009.5
20260906010446 85 166 0.0 2.0 0.00 0.00 0.00 89 1009.6
20260906005943 85 175 1.0 5.0 0.00 0.00 0.00 88 1009.6
20260906005442 85 164 1.0 3.0 0.00 0.00 0.00 87 1009.6
20260906004940 85 172 3.0 5.0 0.00 0.00 0.00 87 1009.7
20260906004434 86 175 1.0 3.0 0.00 0.00 0.00 86 1009.5
20260906003930 86 176 1.0 2.0 0.00 0.00 0.00 84 1009.6
20260906003430 86 177 0.0 1.0 0.00 0.00 0.00 84 1009.4
20260906002926 86 178 1.0 1.0 0.00 0.00 0.00 83 1009.6
20260906002425 86 170 0.0 1.0 0.00 0.00 0.00 83 1009.7
20260906001920 86 174 0.0 0.0 0.00 0.00 0.00 83 1009.7
20260906001416 86 182 0.0 0.0 0.00 0.00 0.00 84 1009.5
20260906000911 87 181 0.0 0.0 0.00 0.00 0.00 84 1009.6
20260906000406 87 172 0.0 1.0 0.00 0.00 0.00 84 1009.6
20260905235901 87 180 0.0 2.0 0.00 0.00 0.00 83 1009.6
20260905235355 87 174 0.0 0.0 0.00 0.00 0.00 83 1009.4
20260905234850 87 170 0.0 1.0 0.00 0.00 0.00 83 1009.8
20260905234346 87 179 0.0 2.0 0.00 0.00 0.00 83 1009.9
20260905233841 88 164 1.0 2.0 0.00 0.00 0.00 84 1009.9
20260905233336 88 174 1.0 2.0 0.00 0.00 0.00 83 1009.9
20260905232835 88 181 0.0 2.0 0.00 0.00 0.00 84 1010.0
20260905232331 87 168 1.0 2.0 0.00 0.00 0.00 84 1009.9
20260905231827 87 170 0.0 1.0 0.00 0.00 0.00 84 1009.9
20260905231321 87 170 1.0 2.0 0.00 0.00 0.00 84 1010.0
20260905230818 87 177 0.0 1.0 0.00 0.00 0.00 84 1009.6
20260905230316 87 185 0.0 5.0 0.00 0.00 0.00 84 1009.8
20260905225815 87 186 0.0 3.0 0.00 0.00 0.00 84 1009.6
20260905225310 87 121 2.0 5.0 0.00 0.00 0.00 83 1009.4
20260905224810 87 178 0.0 2.0 0.00 0.00 0.00 83 1009.6
20260905224306 87 169 0.0 1.0 0.00 0.00 0.00 82 1009.7
20260905223801 87 177 0.0 2.0 0.00 0.00 0.00 82 1009.4
20260905223258 87 153 1.0 1.0 0.00 0.00 0.00 81 1009.7
20260905222753 87 157 1.0 1.0 0.00 0.00 0.00 82 1009.4
20260905222252 87 163 0.0 1.0 0.00 0.00 0.00 83 1009.5
20260905221748 87 176 0.0 1.0 0.00 0.00 0.00 82 1009.7
20260905221245 87 170 0.0 1.0 0.00 0.00 0.00 83 1009.6
20260905220740 87 182 0.0 1.0 0.00 0.00 0.00 83 1009.8
20260905220237 87 181 0.0 1.0 0.00 0.00 0.00 85 1009.7
20260905215736 86 89 1.0 2.0 0.00 0.00 0.00 85 1009.5
20260905215232 86 156 0.0 1.0 0.00 0.00 0.00 85 1009.6
20260905214727 86 194 0.0 0.0 0.00 0.00 0.00 86 1009.6
20260905214223 85 70 0.0 2.0 0.00 0.00 0.00 88 1009.8
20260905213718 85 79 0.0 1.0 0.00 0.00 0.00 89 1009.8
20260905213214 85 174 0.0 0.0 0.00 0.00 0.00 89 1010.0
20260905212709 86 168 0.0 2.0 0.00 0.00 0.00 89 1009.9
20260905212208 85 178 0.0 0.0 0.00 0.00 0.00 89 1010.2
20260905211703 85 179 0.0 2.0 0.00 0.00 0.00 90 1010.2
20260905211158 85 182 0.0 1.0 0.00 0.00 0.00 91 1010.3
20260905210655 85 196 0.0 3.0 0.00 0.00 0.00 90 1010.4
20260905210154 85 186 0.0 3.0 0.00 0.00 0.00 88 1010.2
20260905205654 85 122 0.0 2.0 0.00 0.00 0.00 87 1010.2
20260905205153 85 200 1.0 2.0 0.00 0.00 0.00 86 1010.0
20260905204653 84 187 1.0 2.0 0.00 0.00 0.00 87 1010.1
20260905204148 85 107 3.0 5.0 0.00 0.00 0.00 87 1010.1
20260905203643 84 177 0.0 3.0 0.00 0.00 0.00 89 1010.2
20260905203139 84 107 2.0 3.0 0.00 0.00 0.00 90 1010.3
20260905202634 83 183 3.0 5.0 0.00 0.00 0.00 92 1010.1
20260905202129 83 173 5.0 8.0 0.00 0.00 0.00 92 1010.1
20260905201625 84 209 3.0 9.0 0.00 0.00 0.00 91 1010.4
20260905201124 86 168 4.0 7.0 0.00 0.00 0.00 83 1010.4
20260905200620 87 220 3.0 8.0 0.00 0.00 0.00 77 1010.4
20260905200115 90 149 3.0 11.0 0.00 0.00 0.00 78 1010.4
20260905195614 91 226 6.0 9.0 0.00 0.00 0.00 71 1010.5
20260905195109 91 231 7.0 10.0 0.00 0.00 0.00 72 1010.4
20260905194609 90 219 9.0 15.0 0.00 0.00 0.00 75 1010.5
20260905194108 90 212 8.0 9.0 0.00 0.00 0.00 76 1010.4
20260905193603 90 213 7.0 9.0 0.00 0.00 0.00 75 1010.5
20260905193058 93 253 8.0 11.0 0.00 0.00 0.00 69 1010.7
20260905192554 95 179 1.0 5.0 0.00 0.00 0.00 60 1010.5
20260905192050 95 198 0.0 1.0 0.00 0.00 0.00 63 1010.7
20260905191548 97 206 1.0 3.0 0.00 0.00 0.00 57 1010.4
20260905191048 97 97 2.0 3.0 0.00 0.00 0.00 57 1010.4
20260905190546 98 193 0.0 2.0 0.00 0.00 0.00 59 1010.5
20260905190040 97 165 1.0 1.0 0.00 0.00 0.00 57 1010.6
20260905185539 95 201 1.0 1.0 0.00 0.00 0.00 59 1010.9
20260905185038 96 209 1.0 3.0 0.00 0.00 0.00 59 1011.0
20260905184533 95 186 0.0 2.0 0.00 0.00 0.00 64 1010.9
20260905184032 93 206 1.0 2.0 0.00 0.00 0.00 65 1011.0
20260905183531 92 203 1.0 3.0 0.00 0.00 0.00 65 1011.0
20260905183021 92 205 1.0 2.0 0.00 0.00 0.00 65 1010.8
20260905182521 95 204 1.0 5.0 0.00 0.00 0.00 65 1011.3
20260905182015 93 188 0.0 2.0 0.00 0.00 0.00 65 1011.2
20260905181510 94 314 3.0 5.0 0.00 0.00 0.00 63 1011.5
20260905181009 95 248 2.0 5.0 0.00 0.00 0.00 63 1011.4
20260905180504 95 142 0.0 2.0 0.00 0.00 0.00 67 1011.5
20260905175959 93 213 1.0 3.0 0.00 0.00 0.00 65 1011.7
20260905175458 94 70 1.0 2.0 0.00 0.00 0.00 66 1011.8
20260905174955 93 208 0.0 0.0 0.00 0.00 0.00 66 1011.9
20260905174449 93 203 2.0 3.0 0.00 0.00 0.00 67 1012.1
20260905173945 94 328 1.0 3.0 0.00 0.00 0.00 66 1012.1
20260905173441 94 145 0.0 1.0 0.00 0.00 0.00 66 1012.1
20260905172936 94 176 0.0 1.0 0.00 0.00 0.00 67 1012.1
20260905172434 93 129 1.0 1.0 0.00 0.00 0.00 68 1012.1
20260905171930 92 190 0.0 0.0 0.00 0.00 0.00 70 1012.3
20260905171427 91 199 0.0 1.0 0.00 0.00 0.00 68 1012.1
20260905170923 90 234 3.0 3.0 0.00 0.00 0.00 71 1012.1
20260905170419 90 233 5.0 6.0 0.00 0.00 0.00 71 1012.2
20260905165918 92 259 2.0 6.0 0.00 0.00 0.00 69 1012.4
20260905165413 92 204 0.0 2.0 0.00 0.00 0.00 67 1012.6
20260905164909 92 231 0.0 1.0 0.00 0.00 0.00 70 1012.6
20260905164403 92 195 0.0 2.0 0.00 0.00 0.00 70 1012.7
20260905163858 91 329 3.0 5.0 0.00 0.00 0.00 73 1012.7
20260905163355 92 354 5.0 6.0 0.00 0.00 0.00 71 1012.4
20260905162850 92 193 0.0 2.0 0.00 0.00 0.00 73 1012.6
20260905162350 91 194 1.0 2.0 0.00 0.00 0.00 71 1012.8
20260905161845 93 173 1.0 3.0 0.00 0.00 0.00 70 1012.8
20260905161344 91 197 0.0 1.0 0.00 0.00 0.00 72 1012.3
20260905160843 91 202 0.0 0.0 0.00 0.00 0.00 75 1012.5
20260905160337 90 173 2.0 2.0 0.00 0.00 0.00 78 1012.8
20260905155831 89 212 2.0 3.0 0.00 0.00 0.00 78 1012.6
20260905155331 89 202 1.0 2.0 0.00 0.00 0.00 78 1012.3
20260905154825 87 201 0.0 3.0 0.00 0.00 0.00 82 1012.6
20260905154321 88 187 1.0 2.0 0.00 0.00 0.00 85 1012.7
20260905153816 89 209 3.0 5.0 0.00 0.00 0.00 82 1012.6
20260905153313 91 210 1.0 2.0 0.00 0.00 0.00 79 1012.8
20260905152812 90 179 0.0 1.0 0.00 0.00 0.00 82 1012.7
20260905152311 88 178 0.0 0.0 0.00 0.00 0.00 83 1012.7
20260905151806 87 243 3.0 3.0 0.00 0.00 0.00 84 1012.6
20260905151302 87 187 0.0 3.0 0.00 0.00 0.00 86 1012.9
20260905150802 88 194 2.0 3.0 0.00 0.00 0.00 85 1012.8
20260905150302 87 181 0.0 2.0 0.00 0.00 0.00 89 1012.9
20260905145759 87 193 0.0 1.0 0.00 0.00 0.00 88 1012.7
20260905145253 87 185 0.0 1.0 0.00 0.00 0.00 90 1012.6
20260905144752 87 200 2.0 2.0 0.00 0.00 0.00 89 1012.8
20260905144248 87 184 0.0 2.0 0.00 0.00 0.00 91 1012.8
20260905143746 86 191 0.0 1.0 0.00 0.00 0.00 91 1012.8
20260905143241 86 186 0.0 0.0 0.00 0.00 0.00 92 1012.8
20260905142739 85 200 0.0 2.0 0.00 0.00 0.00 94 1012.8
20260905142234 86 189 1.0 2.0 0.00 0.00 0.00 93 1012.8
20260905141730 87 183 0.0 0.0 0.00 0.00 0.00 91 1012.7
20260905141226 86 183 0.0 0.0 0.00 0.00 0.00 93 1012.6
20260905140721 86 183 0.0 0.0 0.00 0.00 0.00 93 1012.7
20260905140215 86 183 0.0 0.0 0.00 0.00 0.00 93 1012.5
20260905135709 85 180 0.0 0.0 0.00 0.00 0.00 94 1012.4
20260905135206 84 170 0.0 0.0 0.00 0.00 0.00 97 1012.6
20260905134704 83 151 0.0 1.0 0.00 0.00 0.00 99 1012.4
20260905134204 82 171 0.0 0.0 0.00 0.00 0.00 99 1012.6
20260905133659 82 169 0.0 1.0 0.00 0.00 0.00 99 1012.5
20260905133154 81 170 0.0 0.0 0.00 0.00 0.00 99 1012.6
20260905132653 80 157 0.0 0.0 0.00 0.00 0.00 99 1012.6
20260905132148 80 171 0.0 0.0 0.00 0.00 0.00 99 1012.7
20260905131644 80 162 0.0 0.0 0.00 0.00 0.00 99 1012.6
20260905131138 80 171 0.0 0.0 0.00 0.00 0.00 99 1012.5
20260905130632 80 171 0.0 0.0 0.00 0.00 0.00 99 1012.7
20260905130126 79 171 0.0 0.0 0.00 0.00 0.00 99 1012.4
20260905125621 79 171 0.0 0.0 0.00 0.00 0.00 99 1012.4
20260905125117 78 171 0.0 0.0 0.00 0.00 0.00 99 1012.4
20260905124613 77 191 0.0 0.0 0.00 0.00 0.00 99 1012.4
20260905124108 76 192 0.0 0.0 0.00 0.00 0.00 99 1012.2
20260905123558 76 192 0.0 0.0 0.00 0.00 0.00 99 1012.2
20260905123055 76 192 0.0 0.0 0.00 0.00 0.00 99 1012.0
20260905122555 76 192 0.0 0.0 0.00 0.00 0.00 99 1012.3
20260905122055 76 191 0.0 0.0 0.00 0.00 0.00 99 1012.0
20260905121550 76 191 0.0 0.0 0.00 0.00 0.00 99 1012.2
20260905121045 75 193 0.0 0.0 0.00 0.00 0.00 99 1011.9
20260905120544 75 194 0.0 0.0 0.00 0.00 0.00 99 1012.0
20260905120040 76 194 0.0 0.0 0.00 0.00 0.00 99 1011.9
20260905115538 75 194 0.0 0.0 0.00 0.00 0.00 99 1011.8
20260905115033 75 194 0.0 0.0 0.00 0.00 0.00 99 1011.7
20260905114532 75 194 0.0 0.0 0.00 0.00 0.00 99 1011.6
20260905114032 75 194 0.0 0.0 0.00 0.00 0.00 99 1011.8
20260905113527 75 194 0.0 0.0 0.00 0.00 0.00 99 1011.6
20260905113022 75 194 0.0 0.0 0.00 0.00 0.00 99 1011.3
20260905112518 75 194 0.0 0.0 0.00 0.00 0.00 99 1011.4
20260905112013 75 194 0.0 0.0 0.00 0.00 0.00 99 1011.4
20260905111513 76 194 0.0 0.0 0.00 0.00 0.00 99 1011.7
20260905111007 76 194 0.0 0.0 0.00 0.00 0.00 99 1011.5
20260905110506 76 194 0.0 0.0 0.00 0.00 0.00 99 1011.3
20260905110001 76 194 0.0 0.0 0.00 0.00 0.00 99 1011.3
20260905105455 75 194 0.0 0.0 0.00 0.00 0.00 99 1011.3
20260905104955 76 194 0.0 0.0 0.00 0.00 0.00 99 1011.2
20260905104451 76 192 0.0 0.0 0.00 0.00 0.00 99 1011.2
20260905103945 76 192 0.0 0.0 0.00 0.00 0.00 99 1011.2
20260905103440 76 192 0.0 0.0 0.00 0.00 0.00 99 1011.1
20260905102937 76 192 0.0 0.0 0.00 0.00 0.00 99 1011.1
20260905102432 76 192 0.0 0.0 0.00 0.00 0.00 99 1011.3
20260905101927 76 192 0.0 0.0 0.00 0.00 0.00 99 1011.4
20260905101426 76 192 0.0 0.0 0.00 0.00 0.00 99 1011.3
20260905100921 76 192 0.0 0.0 0.00 0.00 0.00 99 1011.2
20260905100416 76 191 0.0 0.0 0.00 0.00 0.00 99 1011.2
20260905095916 76 194 0.0 0.0 0.00 0.00 0.00 99 1011.2
20260905095411 76 194 0.0 0.0 0.00 0.00 0.00 99 1011.3
20260905094911 76 194 0.0 0.0 0.00 0.00 0.00 99 1011.2
20260905094407 76 194 0.0 0.0 0.00 0.00 0.00 99 1011.2
20260905093905 76 194 0.0 0.0 0.00 0.00 0.00 99 1011.3
20260905093401 76 194 0.0 0.0 0.00 0.00 0.00 99 1011.1
20260905092856 76 194 0.0 0.0 0.00 0.00 0.00 99 1011.1
20260905092351 76 194 0.0 0.0 0.00 0.00 0.00 99 1011.5
20260905091846 76 194 0.0 0.0 0.00 0.00 0.00 99 1011.1
20260905091346 76 194 0.0 0.0 0.00 0.00 0.00 99 1011.4
20260905090845 76 194 0.0 0.0 0.00 0.00 0.00 99 1011.2
20260905090341 77 194 0.0 0.0 0.00 0.00 0.00 99 1011.1
20260905085840 76 194 0.0 0.0 0.00 0.00 0.00 99 1011.3
20260905085340 76 194 0.0 0.0 0.00 0.00 0.00 99 1011.3
20260905084836 76 194 0.0 0.0 0.00 0.00 0.00 99 1011.0
20260905084334 77 194 0.0 0.0 0.00 0.00 0.00 99 1011.0
20260905083829 77 194 0.0 0.0 0.00 0.00 0.00 99 1010.9
20260905083326 76 194 0.0 0.0 0.00 0.00 0.00 99 1011.0
20260905082820 77 194 0.0 0.0 0.00 0.00 0.00 99 1011.0
20260905082317 77 194 0.0 0.0 0.00 0.00 0.00 99 1011.2
20260905081812 77 194 0.0 0.0 0.00 0.00 0.00 99 1011.2
20260905081307 77 194 0.0 0.0 0.00 0.00 0.00 99 1011.4
20260905080805 77 194 0.0 0.0 0.00 0.00 0.00 99 1011.4
20260905080300 77 194 0.0 0.0 0.00 0.00 0.00 99 1011.2
20260905075759 77 194 0.0 0.0 0.00 0.00 0.00 99 1011.2
20260905075259 77 194 0.0 0.0 0.00 0.00 0.00 99 1011.4
20260905074758 77 194 0.0 0.0 0.00 0.00 0.00 99 1011.4
20260905074254 77 194 0.0 0.0 0.00 0.00 0.00 99 1011.3
20260905073749 77 194 0.0 0.0 0.00 0.00 0.00 99 1011.3
20260905073244 77 194 0.0 0.0 0.00 0.00 0.00 99 1011.5
20260905072744 77 194 0.0 0.0 0.00 0.00 0.00 99 1011.6
20260905072239 77 194 0.0 0.0 0.00 0.00 0.00 99 1011.7
20260905071736 78 191 0.0 0.0 0.00 0.00 0.00 99 1011.6
20260905071232 78 191 0.0 0.0 0.00 0.00 0.00 99 1011.5
20260905070726 77 193 0.0 0.0 0.00 0.00 0.00 99 1011.6
20260905070223 78 194 0.0 0.0 0.00 0.00 0.00 99 1011.7
20260905065721 78 194 0.0 0.0 0.00 0.00 0.00 99 1011.5
20260905065215 78 194 0.0 0.0 0.00 0.00 0.00 99 1011.8
20260905064711 78 194 0.0 0.0 0.00 0.00 0.00 99 1011.8
20260905064207 78 194 0.0 0.0 0.00 0.00 0.00 99 1011.7
20260905063704 78 194 0.0 0.0 0.00 0.00 0.00 99 1011.5
20260905063201 78 194 0.0 0.0 0.00 0.00 0.00 99 1011.7
20260905062657 78 194 0.0 0.0 0.00 0.00 0.00 99 1011.7
20260905062156 78 194 0.0 0.0 0.00 0.00 0.00 99 1012.0
20260905061656 78 194 0.0 0.0 0.00 0.00 0.00 99 1011.9
20260905061150 78 194 0.0 0.0 0.00 0.00 0.00 99 1011.9
20260905060646 79 184 0.0 0.0 0.00 0.00 0.00 99 1011.9
20260905060142 79 184 0.0 0.0 0.00 0.00 0.00 99 1011.9
20260905055641 80 158 0.0 1.0 0.00 0.00 0.00 99 1011.9
20260905055136 79 177 0.0 0.0 0.00 0.00 0.00 99 1011.9
20260905054632 79 183 0.0 0.0 0.00 0.00 0.00 99 1012.0
20260905054127 79 188 0.0 0.0 0.00 0.00 0.00 99 1011.8
20260905053627 79 191 0.0 0.0 0.00 0.00 0.00 99 1011.9
20260905053122 79 191 0.0 0.0 0.00 0.00 0.00 99 1012.0
20260905052621 79 192 0.0 0.0 0.00 0.00 0.00 99 1011.7
20260905052116 80 186 0.0 0.0 0.00 0.00 0.00 99 1011.9
20260905051611 80 185 0.0 0.0 0.00 0.00 0.00 99 1011.9
20260905051108 80 188 0.0 0.0 0.00 0.00 0.00 99 1011.8
20260905050603 80 193 0.0 0.0 0.00 0.00 0.00 99 1011.8
20260905050055 80 193 0.0 1.0 0.00 0.00 0.00 99 1011.9
20260905045554 80 185 0.0 0.0 0.00 0.30 0.30 99 1011.8
20260905045050 80 191 0.0 0.0 0.00 0.30 0.30 99 1011.7
20260905044550 80 191 0.0 0.0 0.00 0.30 0.30 99 1011.9
20260905044044 80 191 0.0 0.0 0.00 0.30 0.30 99 1011.9
20260905043543 80 191 0.0 0.0 0.00 0.30 0.30 99 1012.0
20260905043039 80 190 0.0 0.0 0.00 0.30 0.30 99 1011.9
20260905042538 80 203 0.0 0.0 0.00 0.30 0.30 99 1012.1
20260905042033 80 203 0.0 0.0 0.00 0.30 0.30 99 1011.9
20260905041528 80 204 0.0 0.0 0.00 0.30 0.30 99 1011.8
20260905041024 81 206 0.0 1.0 0.00 0.30 0.30 99 1012.1
20260905040523 81 200 0.0 2.0 0.00 0.30 0.30 98 1012.3